Location: Unspecified
(48.7670°N, 0.0000°E)
Time: 08:20:02
(UTC+00:00)

Altair - Pass Details

Date: 07 October 2020
Orbit: 1502 x 1682 km, 47.2° (Epoch: 20 October)

Event Time Altitude Azimuth Distance (km) Brightness Sun altitude
Rises 18:50:05 0° 287° (WNW) 4,934 12.0 -14.7°
Reaches altitude 10° 18:55:01 10° 267° (W) 3,946 11.0 -15.5°
Maximum altitude 19:00:13 15° 236° (SW) 3,511 10.0 -16.4°
Drops below altitude 10° 19:05:24 10° 204° (SSW) 3,918 9.8 -17.2°
Sets 19:10:19 0° 184° (S) 4,879 10.1 -18.0°
